Regional Weather Roundup
Issued by NWS Grand Forks, ND

Home | Current Version | Previous Version | Text Only | Print | Product List | Glossary On
Versions: 1 2 3 4 5 6 7 8 9 10 11 12 13 14 15 16 17 18 19 20 21 22 23 24 25 26 27 28 29 30 31 32 33 34 35 36 37 38 39 40 41 42 43 44 45 46 47 48 49 50
000
ASUS43 KFGF 250110
RWRFGF
PRAIRIE TO PINES  WEATHER ROUNDUP
NATIONAL WEATHER SERVICE EASTERN NORTH DAKOTA/GRAND FORKS ND
800 PM CDT SUN SEP 24 2017

 **SATELLITE DATA USED TO AUGMENT SKY COVER AT AUTOMATED STATIONS**
 *****  WEATHER ACROSS EASTERN NORTH DAKOTA  *****

CITY           SKY/WX    TMP DP  RH WIND       PRES   REMARKS
GRAND FORKS    CLOUDY    52  50  93 NW13G22   29.95R
GRAND FRKS AFB CLOUDY    52  50  93 N14       29.98R
DEVILS LAKE    CLOUDY    48  46  93 NW12      30.03R
FARGO          CLOUDY    53  51  93 NW15      29.95R
WAHPETON ARPT  CLOUDY    52  48  87 NW14      29.96R
$$

 ***** WEATHER ACROSS CENTRAL AND WESTERN NORTH DAKOTA  *****

CITY           SKY/WX    TMP DP  RH WIND       PRES   REMARKS
BISMARCK       CLOUDY    51  46  83 NW9       30.08R
MINOT          CLOUDY    49  45  86 NW10      30.08R
JAMESTOWN      CLOUDY    50  47  89 NW14      30.02R
MINOT AFB      CLOUDY    48  45  89 NW8       30.06S
GARRISON         N/A     47  44  90 NW7       30.08R
WILLISTON      MOCLDY    47  43  86 W3        30.12R
DICKINSON      CLOUDY    45  41  86 NW6       30.09S
HETTINGER      CLOUDY    45  41  86 N7        30.11S
$$

 *****  OTHER AIRPORT OBSERVATIONS IN OUR AREA  *****

CITY           SKY/WX    TMP DP  RH WIND       PRES   REMARKS
WALHALLA       FAIR     N/A N/A N/A NW13G18   29.98R
GRAFTON AIRPOR NOT AVBL
VALLEY CITY AR NOT AVBL
CANDO          CLOUDY    48  48 100 NW9       30.05R
CAVALIER APRT  CLOUDY    50  50 100 NW13G21   29.96R
GWINNER        CLOUDY    52  50  93 NW10G17   30.00R
SHEYENNE NWR     N/A     53  53 100 NW6       29.95S
ROLLA          CLOUDY    46  46 100 NW14      30.04S
 ***** THE ABOVE OBSERVATIONS ARE NON NWS ARE NOT QUALITY
       CONTROLLED AND MAY MIS-REPORT RAIN FOR SNOW...
$$

  *****  WEATHER ACROSS NORTHERN MINNESOTA  *****

CITY           SKY/WX    TMP DP  RH WIND       PRES   REMARKS
FLAG ISLAND    MOCLDY    54  52  94 NW17      29.82F
WARROAD        NOT AVBL
ROSEAU           N/A     52  46  82 NW8       29.87R
HALLOCK        CLOUDY    50  48  93 NW14      29.93R
THF RVR FALLS  CLOUDY    51  50  96 NW12      29.92R
BAUDETTE       CLOUDY    55  55 100 NW13      29.84R
WASKISH        CLOUDY    61  57  88 W10       29.85R
CROOKSTON      CLOUDY    50  50 100 NW15      29.95R
STEPHEN NDAWN    N/A     52  48  87 NW12        N/A
GREENBUSH NDAW   N/A     50  48  93 NW10        N/A
$$
  *****  WEATHER ACROSS CENTRAL AND WEST MINNESOTA  *****

CITY           SKY/WX    TMP DP  RH WIND       PRES   REMARKS
FOSSTON        CLOUDY    52  50  93 W9        29.91R FOG
BEMIDJI        CLOUDY    57  56  94 W12       29.87R
PARK RAPIDS    MOCLDY    58  55  90 W8        29.89R
ELBOW LAKE     CLOUDY    54  53  97 W14       29.95R
WADENA         CLOUDY    57  57 100 W3        29.89S
DETROIT LAKES  CLOUDY    52  52 100 NW9       29.93R
MOORHEAD       CLOUDY    52  50  93 NW14      29.95R
FERGUS FALLS   CLOUDY    54  54 100 NW12G18   29.95R
MORRIS MN      CLOUDY    57  55  94 NW14      29.94
STAPLES        FAIR      61  57  88 W7        29.89S
$$
  *****  WEATHER ELSEWHERE ACROSS MINNESOTA  *****

CITY           SKY/WX    TMP DP  RH WIND       PRES   REMARKS
DULUTH         TSTM      68  65  90 W17       29.92R
INTRNTL FALLS  CLOUDY    66  64  93 W15       29.81R
ELY            LGT RAIN  66  64  94 SW6       29.85R
CLOQUET        LGT RAIN  66  63  88 W10G25    29.87R
WHEATON        CLOUDY    55  50  82 NW10      29.97R
BRAINERD       MOCLDY    67  66  97 SW3       29.87R
HIBBING        LGT RAIN  65  65 100 VRB3      29.86R
ALEXANDRIA     CLOUDY    58  56  93 W8        29.91F
SAINT CLOUD    FAIR      68  68 100 W6        29.87F
MINNEAPOLIS    MOCLDY    77  66  68 W10       29.89R
$$

  *****  WEATHER ACROSS SOUTH DAKOTA  *****

CITY           SKY/WX    TMP DP  RH WIND       PRES   REMARKS
SIOUX FALLS    LGT RAIN  59  56  89 NW8       29.98R
BROOKINGS      CLOUDY    55  52  89 NW12      29.97S
WATERTOWN      CLOUDY    53  52  96 NW10      29.97R
HURON          CLOUDY    54  50  86 NW10      30.00R
SISSETON         N/A     54  52  93 NW16      29.96R
ABERDEEN       CLOUDY    53  49  86 N12       30.02R
MITCHELL       CLOUDY    56  53  90 NW9       29.99S
PIERRE         CLOUDY    53  46  77 N9        30.04R
MOBRIDGE       CLOUDY    52  47  83 N10       30.04R
RAPID CITY     CLOUDY    48  41  76 N10       30.09S
$$

  *****  SOME WEATHER IN NEARBY STATES *****

CITY           SKY/WX    TMP DP  RH WIND       PRES   REMARKS
GLASGOW MT     FAIR      51  37  58 CALM      30.10R
GREAT FALLS MT FAIR      53  27  36 SE5       30.04S
CHEYENNE WY    LGT RAIN  42  41  96 E8        30.04R VSB 1
SCOTTSBLUFF NE CLOUDY    50  43  77 NE10      30.04R
OMAHA NE       MOCLDY    73  68  84 N10       29.88R
DES MOINES IA  FAIR      81  62  52 SE7       29.90S
DAVENPORT IA   FAIR      75  65  70 SE6       29.98S
CHICAGO IL     FAIR      80  59  48 SE8       30.01R
EAU CLAIRE WI  FAIR      80  61  52 S12       29.90R
LA CROSSE WI   FAIR      83  64  52 S10       29.92R
$$

  *****  SOME NATIONAL WEATHER *****

CITY           SKY/WX    TMP DP  RH WIND       PRES   REMARKS
LA GUARDIA NY  FAIR      77  63  61 S7        30.04R
RALEIGH NC     MOCLDY    72  61  68 NE5       30.03R
ATLANTA GA     FAIR      76  65  68 E7        30.02S
NEW ORLEANS LA FAIR      81  70  69 E12       29.91R
OKLAHOMA CITY  MOCLDY    79  61  53 S6        29.88S
ALBUQUERQUE NM FAIR      73  21  14 SE3       29.88F
SALT LAKE CITY LGT RAIN  45  44  97 SE7       30.11R
LOS ANGELES CA FAIR      72  51  47 W14       29.84R
BOISE ID       FAIR      63  33  32 NW16      30.00R
SEATTLE WA     MOCLDY    70  48  45 N5        30.10F
$$

*** WEATHER ACROSS MANITOBA...SASKATCHEWAN AND ONTARIO ***
                ***ONTARIO***

CITY           SKY/WX    TMP DP  RH WIND       PRES   REMARKS
GERALDTON      MOCLDY    68  64  88 S7        29.85F
THUNDER BAY    NOT AVBL
SIOUX LOOKOUT  DRIZZLE   63  63 100 S3        29.76R FOG
TORONTO        CLEAR     82  66  57 S5        30.09R
BIG TROUT LK   LGT RAIN  46  46 100 NE7       29.97S
PICKLE LAKE    LGT RAIN  52  50  93 NE7       29.78F FOG
DRYDEN         CLOUDY    63  61  94 W8        29.77R FOG
KENORA         LGT RAIN  54  52  94 NW10      29.83R VSB 3/4
$$
                *** MANITOBA***

CITY           SKY/WX    TMP DP  RH WIND       PRES   REMARKS
BRANDON        CLOUDY    48  46  93 NW7       30.06R
DAUPHIN        CLOUDY    48  46  93 NW7       30.07S
ISLAND LAKE    LGT RAIN  45  43  93 N10G17    30.05S
PILOT MOUND      N/A     48  45  87 NW10        N/A
THE PAS        PTCLDY    46  39  76 E6        30.11R
THOMPSON       CLOUDY    43  34  70 NE5       30.15R
WINNIPEG       LGT RAIN  48  46  93 N14       29.96R
LYNN LAKE      CLOUDY    41  37  87 S6        30.12S
CHURCHILL      MOCLDY    39  34  81 SE2       30.20S
GILLAM         CLOUDY    41  34  75 NE10      30.16S
$$
                ***SASKATCHEWAN***

CITY           SKY/WX    TMP DP  RH WIND       PRES   REMARKS
ESTEVAN        CLOUDY    48  43  81 CALM      30.10S
KINDERSLEY     PTCLDY    52  32  46 S5        30.02F
LLOYDMINSTER   CLOUDY    52  39  62 S7        29.99F
PRINCE ALBERT  MOCLDY    48  39  71 E3        30.09R
REGINA         CLOUDY    52  34  50 E5        30.10S
YORKTON        CLOUDY    48  39  71 NW5       30.09S
N. BATTLEFORD  CLOUDY    48  34  57 SE5       30.05S
LA RONGE       MOCLDY    48  43  81 CALM      30.06S
SASKATOON      PTCLDY    52  39  62 E3        30.06S
SWIFT CURRENT    N/A     52  32  46 S7        30.05S
$$
NOTE: THESE ARE AUTOMATED STATIONS WITH LIMITED QUALITY CONTROL
      "FAIR" INDICATES FEW OR NO CLOUDS BELOW 12,000 FEET WITH NO
      SIGNIFICANT WEATHER AND/OR OBSTRUCTIONS TO VISIBILITY.
      SKY/WX - SKY CONDITION AND SIGNIFICANT WEATHER.
      TMP - AIR TEMPERATURE.    DP   - DEWPOINT TEMPERATURE.
      RH  - RELATIVE HUMIDITY.  PRES - PRESSURE.
      HX  - HEAT INDEX.         WCI  - WIND CHILL INDEX.
$




USA.gov is the U.S. government's official web portal to all federal, state and local government web resources and services.